Home   Weather   Rimouski   Past weeks
Flag for Canada

Past Weather in Rimouski, Quebec, Canada — Yesterday and Last 2 Weeks

Now
45 °F

Passing clouds.


Feels Like: 43 °F
Forecast: 55 / 41 °F
Wind: 3 mph from South

Location: Mont Joli

Current Time: May 19, 2019 at 4:39:31 am

Latest Report: May 19, 2019 at 4:00 am


Visibility: 30 mi

Pressure: 30.08 "Hg

Humidity: 71%

Dew Point: 36 °F

Location of RimouskiLocation

Past Weather in Rimouski — Graph

°F

Rimouski Temperature Yesterday

Maximum temperature yesterday: 52 °F (at 5:00 pm)
Minimum temperature yesterday: 41 °F (at 1:04 am)
Average temperature yesterday: 45 °F

High & Low Weather Summary for the Past Weeks

 TemperatureHumidityPressure
High57 °F (May 6, 9:00 am)100% (May 7, 5:05 am)30.40 "Hg (May 7, 5:05 am)
Low32 °F (May 13, 1:00 am)21% (May 5, 6:00 pm)29.72 "Hg (May 11, 3:00 am)
Average44 °F71%29.98 "Hg
* Reported May 4 3:00 am — May 19 3:00 am, Rimouski. Weather by CustomWeather, © 2019

Note: Actual official high and low records may vary slightly from our data, if they occured in-between our weather recording intervals... More about our weather records

Advertising

Rimouski Weather History for the Previous 24 Hours

Scroll right to see more
 ConditionsComfort  
Time TempWeatherWind HumidityBarometerVisibility
3:00 am
Sun, May 19
45 °FOvercast.5 mph71%30.08 "Hg30 mi
2:00 am43 °FPassing clouds.No wind76%30.08 "Hg30 mi
1:00 am43 °FPassing clouds.6 mph81%30.07 "Hg30 mi
12:00 am45 °FPassing clouds.3 mph76%30.07 "Hg30 mi
11:00 pm
Sat, May 18
45 °FOvercast.3 mph76%30.06 "Hg30 mi
10:00 pm46 °FPassing clouds.3 mph71%30.06 "Hg30 mi
9:00 pm46 °FPassing clouds.3 mph66%30.05 "Hg30 mi
8:00 pm46 °FScattered clouds.5 mph66%30.02 "Hg30 mi
7:00 pm52 °FPassing clouds.5 mph54%30.02 "Hg30 mi
6:00 pm52 °FPassing clouds.5 mph54%30.01 "Hg30 mi
5:00 pm52 °FScattered clouds.6 mph54%30.01 "Hg30 mi
4:00 pm50 °FPartly sunny.7 mph54%30.01 "Hg30 mi
3:00 pm50 °FPartly sunny.10 mph58%30.00 "Hg30 mi
2:00 pm50 °FPartly sunny.8 mph62%30.01 "Hg30 mi
1:00 pm46 °FPartly sunny.9 mph76%30.02 "Hg30 mi
12:00 pm46 °FPartly sunny.12 mph76%30.00 "Hg30 mi
11:00 am46 °FBroken clouds.15 mph76%29.99 "Hg30 mi
10:00 am45 °FBroken clouds.16 mph76%29.98 "Hg30 mi
9:00 am43 °FMostly cloudy.12 mph81%29.97 "Hg30 mi
8:00 am43 °FBroken clouds.12 mph81%29.96 "Hg30 mi
7:00 am43 °FPartly sunny.13 mph87%29.93 "Hg30 mi
6:00 am41 °FBroken clouds.13 mph87%29.89 "Hg30 mi
5:00 am41 °FPartly sunny.18 mph93%29.87 "Hg15 mi
4:00 am41 °FMostly cloudy.17 mph93%29.85 "Hg30 mi
Weather by CustomWeather, © 2019

See weather overview